FW2316 Weather Reports


Display with metric or nautical units.
time (UTC)temp
F
wind
direction
speed
MPH
gust
MPH
rain 1hr
in
rain 24hr
in
rain mn
in
humidity
%
barometer
mb
20260506202513 53 198 2.0 6.0 0.00 0.00 0.00 92 1021.9
20260506202012 53 180 1.0 6.0 0.00 0.00 0.00 92 1022.0
20260506201513 53 192 3.0 6.0 0.00 0.00 0.00 92 1021.9
20260506201012 53 187 1.0 6.0 0.00 0.00 0.00 92 1021.9
20260506200511 53 214 2.0 5.0 0.00 0.00 0.00 92 1021.9
20260506200012 53 186 2.0 5.0 0.00 0.00 0.00 92 1021.8
20260506195511 53 221 1.0 4.0 0.00 0.00 0.00 92 1021.8
20260506195016 53 235 2.0 7.0 0.00 0.00 0.00 92 1021.8
20260506194511 53 242 2.0 7.0 0.00 0.00 0.00 92 1021.8
20260506194015 53 242 1.0 4.0 0.00 0.00 0.00 92 1021.8
20260506193511 53 242 1.0 5.0 0.00 0.00 0.00 92 1021.8
20260506192612 53 251 3.0 5.0 0.00 0.00 0.00 93 1021.8
20260506192009 53 251 1.0 6.0 0.00 0.00 0.00 93 1021.8
20260506191509 53 270 3.0 6.0 0.00 0.00 0.00 93 1021.9
20260506191010 53 296 2.0 5.0 0.00 0.00 0.00 93 1021.7
20260506190508 53 305 2.0 5.0 0.00 0.00 0.00 93 1021.8
20260506190009 53 286 2.0 7.0 0.00 0.00 0.00 93 1021.8
20260506185508 53 280 4.0 7.0 0.00 0.00 0.00 94 1021.8
20260506185007 53 286 3.0 6.0 0.00 0.00 0.00 94 1021.5
20260506184507 52 260 3.0 4.0 0.00 0.00 0.00 94 1021.4
20260506184008 52 247 1.0 4.0 0.00 0.00 0.00 93 1021.4
20260506183507 52 246 0.0 5.0 0.00 0.00 0.00 94 1021.4
20260506182510 53 252 1.0 4.0 0.00 0.00 0.00 94 1021.5
20260506182014 52 252 2.0 4.0 0.00 0.00 0.00 94 1021.5
20260506181526 52 251 2.0 4.0 0.00 0.00 0.00 94 1021.6
20260506181010 52 254 1.0 7.0 0.00 0.00 0.00 94 1021.6
20260506180511 52 252 3.0 7.0 0.00 0.00 0.00 94 1021.6
20260506180009 52 269 2.0 7.0 0.00 0.00 0.00 95 1021.5
20260506175511 52 258 2.0 7.0 0.00 0.00 0.00 95 1021.6
20260506175007 52 260 1.0 8.0 0.00 0.00 0.00 95 1021.6
20260506174508 52 338 2.0 8.0 0.00 0.00 0.00 95 1021.6
20260506174009 52 280 2.0 7.0 0.00 0.00 0.00 95 1021.5
20260506173512 52 275 3.0 7.0 0.00 0.00 0.00 95 1021.5
20260506172503 52 257 2.0 7.0 0.00 0.00 0.00 96 1021.4
20260506172005 52 247 3.0 7.0 0.00 0.00 0.00 96 1021.4
20260506171506 52 236 2.0 7.0 0.00 0.00 0.00 95 1021.4
20260506171003 52 234 3.0 6.0 0.00 0.00 0.00 96 1021.4
20260506170603 52 228 3.0 5.0 0.00 0.00 0.00 95 1021.3
20260506170001 52 227 0.0 3.0 0.00 0.00 0.00 96 1021.1
20260506165504 52 227 2.0 3.0 0.00 0.00 0.00 96 1021.1
20260506165002 52 227 0.0 3.0 0.00 0.00 0.00 96 1021.0
20260506164502 52 227 0.0 3.0 0.00 0.00 0.00 96 1021.1
20260506164001 52 227 1.0 2.0 0.00 0.00 0.00 96 1021.1
20260506163600 52 227 0.0 3.0 0.00 0.00 0.00 96 1021.0
20260506162557 51 227 2.0 5.0 0.00 0.00 0.00 96 1021.2
20260506162057 52 227 2.0 5.0 0.00 0.00 0.00 96 1021.3
20260506161557 51 226 2.0 5.0 0.00 0.00 0.00 96 1021.2
20260506161056 51 226 2.0 5.0 0.00 0.00 0.00 96 1021.3
20260506160556 52 225 3.0 5.0 0.00 0.00 0.00 96 1021.2
20260506160057 52 222 2.0 4.0 0.00 0.00 0.00 97 1021.3
20260506155558 51 221 1.0 4.0 0.00 0.00 0.00 96 1021.1
20260506155059 51 221 2.0 4.0 0.00 0.00 0.00 96 1021.0
20260506154611 51 221 1.0 4.0 0.00 0.00 0.00 96 1020.8
20260506154054 51 221 1.0 3.0 0.00 0.00 0.00 97 1021.0
20260506153554 51 221 0.0 5.0 0.00 0.00 0.00 96 1021.2
20260506152555 51 219 1.0 5.0 0.00 0.00 0.00 97 1021.3
20260506152057 51 219 1.0 5.0 0.00 0.00 0.00 96 1021.1
20260506151555 52 218 2.0 5.0 0.00 0.00 0.00 96 1021.0
20260506151053 52 217 3.0 5.0 0.00 0.00 0.00 97 1021.1
20260506150552 51 210 1.0 4.0 0.00 0.00 0.00 97 1020.7
20260506150054 51 210 2.0 4.0 0.00 0.00 0.00 97 1020.7
20260506145552 51 210 2.0 4.0 0.00 0.00 0.00 96 1020.5
20260506145052 51 210 1.0 3.0 0.00 0.00 0.00 97 1020.5
20260506144556 51 210 1.0 3.0 0.00 0.00 0.00 97 1020.1
20260506144052 51 210 1.0 4.0 0.00 0.00 0.00 96 1020.5
20260506143549 51 210 1.0 4.0 0.00 0.00 0.00 96 1020.7
20260506142547 51 210 1.0 5.0 0.00 0.00 0.00 96 1020.7
20260506142045 51 210 2.0 5.0 0.00 0.00 0.00 96 1020.8
20260506141545 51 209 1.0 5.0 0.00 0.00 0.00 96 1020.7
20260506141046 51 209 2.0 5.0 0.00 0.00 0.00 96 1020.6
20260506140547 51 209 2.0 4.0 0.00 0.00 0.00 96 1020.9
20260506140043 51 209 2.0 4.0 0.00 0.00 0.00 96 1020.9
20260506135541 51 209 2.0 4.0 0.00 0.00 0.00 96 1020.9
20260506135040 51 209 1.0 5.0 0.00 0.00 0.00 96 1020.8
20260506134539 51 209 2.0 5.0 0.00 0.00 0.00 96 1020.6
20260506134040 51 208 0.0 2.0 0.00 0.00 0.00 96 1020.4
20260506133538 51 208 0.0 2.0 0.00 0.00 0.00 96 1020.3
20260506132540 51 208 0.0 3.0 0.00 0.00 0.00 96 1020.3
20260506132040 51 208 0.0 3.0 0.00 0.00 0.00 96 1020.3
20260506131539 51 208 0.0 3.0 0.00 0.00 0.00 96 1020.2
20260506131038 51 208 0.0 3.0 0.00 0.00 0.00 96 1020.3
20260506130538 51 208 1.0 3.0 0.00 0.00 0.00 96 1020.3
20260506130039 51 208 0.0 4.0 0.00 0.00 0.00 95 1020.0
20260506125537 51 208 2.0 4.0 0.00 0.00 0.00 95 1020.0
20260506125035 51 208 0.0 3.0 0.00 0.00 0.00 95 1020.0
20260506124535 51 208 0.0 4.0 0.00 0.00 0.00 95 1020.0
20260506124034 51 208 1.0 4.0 0.00 0.00 0.00 95 1019.9
20260506123534 51 208 1.0 4.0 0.00 0.00 0.00 95 1019.9
20260506122635 51 208 0.0 3.0 0.00 0.00 0.00 94 1019.8
20260506122031 51 208 0.0 3.0 0.00 0.00 0.00 94 1019.7
20260506121530 51 208 0.0 4.0 0.00 0.00 0.00 94 1019.8
20260506121031 52 208 1.0 4.0 0.00 0.00 0.00 94 1019.7
20260506120530 52 208 2.0 4.0 0.00 0.00 0.00 94 1019.7
20260506120030 52 208 2.0 4.0 0.00 0.00 0.00 93 1019.7
20260506115529 52 208 1.0 3.0 0.00 0.00 0.00 93 1019.8
20260506115028 52 208 0.0 3.0 0.00 0.00 0.00 93 1019.9
20260506114600 52 208 1.0 4.0 0.00 0.00 0.00 93 1019.9
20260506114028 52 207 1.0 4.0 0.00 0.00 0.00 93 1019.9
20260506113530 52 207 1.0 4.0 0.00 0.00 0.00 93 1019.8
20260506112527 52 208 2.0 5.0 0.00 0.00 0.00 92 1019.7
20260506112025 52 209 2.0 5.0 0.00 0.00 0.00 92 1019.8
20260506111525 52 209 2.0 5.0 0.00 0.00 0.00 92 1019.7
20260506111024 52 208 2.0 5.0 0.00 0.00 0.00 92 1019.8
20260506110524 53 207 2.0 5.0 0.00 0.00 0.00 91 1019.7
20260506110023 53 203 0.0 4.0 0.00 0.00 0.00 91 1019.7
20260506105521 53 203 0.0 4.0 0.00 0.00 0.00 91 1019.6
20260506105022 53 202 2.0 4.0 0.00 0.00 0.00 91 1019.5
20260506104541 53 202 2.0 5.0 0.00 0.00 0.00 91 1019.4
20260506104020 53 203 1.0 5.0 0.00 0.00 0.00 91 1019.4
20260506103519 53 202 2.0 4.0 0.00 0.00 0.00 91 1019.4
20260506102519 53 202 0.0 5.0 0.00 0.00 0.00 91 1019.2
20260506102018 53 202 2.0 5.0 0.00 0.00 0.00 91 1019.1
20260506101517 53 203 2.0 5.0 0.00 0.00 0.00 91 1019.0
20260506101018 53 205 0.0 6.0 0.00 0.00 0.00 91 1019.0
20260506100519 53 205 2.0 6.0 0.00 0.00 0.00 91 1019.0
20260506100018 53 209 3.0 6.0 0.00 0.00 0.00 91 1018.9
20260506095515 53 207 1.0 5.0 0.00 0.00 0.00 91 1018.9
20260506095016 53 207 3.0 5.0 0.00 0.00 0.00 91 1018.9
20260506094514 54 207 1.0 5.0 0.00 0.00 0.00 91 1018.9
20260506094017 54 207 1.0 5.0 0.00 0.00 0.00 91 1018.9
20260506093513 54 207 3.0 5.0 0.00 0.00 0.00 90 1018.9
20260506092512 54 205 2.0 5.0 0.00 0.00 0.00 90 1018.8
20260506092011 54 205 2.0 5.0 0.00 0.00 0.00 90 1018.7
20260506091511 54 203 1.0 3.0 0.00 0.00 0.00 90 1018.7
20260506091011 54 203 0.0 3.0 0.00 0.00 0.00 90 1018.6
20260506090513 54 203 0.0 5.0 0.00 0.00 0.00 90 1018.6
20260506090010 54 203 1.0 5.0 0.00 0.00 0.00 90 1018.7
20260506085513 54 205 1.0 5.0 0.00 0.00 0.00 90 1018.7
20260506085011 54 206 3.0 5.0 0.00 0.00 0.00 90 1018.6
20260506084510 55 209 2.0 6.0 0.00 0.00 0.00 90 1018.6
20260506084014 55 225 3.0 5.0 0.00 0.00 0.00 90 1018.7
20260506083510 55 251 1.0 4.0 0.00 0.00 0.00 90 1018.6
20260506082511 55 255 0.0 4.0 0.00 0.00 0.00 90 1018.5
20260506082011 55 257 1.0 4.0 0.00 0.00 0.00 90 1018.6
20260506081511 55 257 1.0 4.0 0.00 0.00 0.00 90 1018.6
20260506081010 55 257 2.0 4.0 0.00 0.00 0.00 90 1018.5
20260506080510 55 259 1.0 4.0 0.00 0.00 0.00 90 1018.5
20260506073510 55 287 1.0 2.0 0.00 0.00 0.00 91 1018.3
20260506072508 55 288 0.0 2.0 0.00 0.00 0.00 90 1018.2
20260506072007 55 288 0.0 2.0 0.00 0.00 0.00 90 1018.3
20260506071508 55 288 0.0 2.0 0.00 0.00 0.00 91 1018.3
20260506071007 55 288 0.0 3.0 0.00 0.00 0.00 91 1018.3
20260506070507 55 288 1.0 3.0 0.00 0.00 0.00 91 1018.2
20260506062503 54 288 0.0 0.0 0.00 0.00 0.00 93 1017.7
20260506062004 53 288 0.0 0.0 0.00 0.00 0.00 93 1017.6
20260506061502 53 288 0.0 0.0 0.00 0.00 0.00 92 1017.5
20260506061002 53 288 0.0 0.0 0.00 0.00 0.00 92 1017.5
20260506060502 53 288 0.0 1.0 0.00 0.00 0.00 92 1017.5
20260506051059 54 293 0.0 0.0 0.00 0.00 0.00 90 1017.4
20260506050559 55 293 0.0 0.0 0.00 0.00 0.00 90 1017.3
20260506045101 55 293 0.0 0.0 0.00 0.00 0.00 88 1017.3
20260506044612 56 293 0.0 0.0 0.00 0.00 0.00 88 1017.3
20260506044058 56 293 0.0 0.0 0.00 0.00 0.00 88 1017.3
20260506043558 56 293 0.0 0.0 0.00 0.00 0.00 87 1017.2
20260506042558 57 293 0.0 0.0 0.00 0.00 0.00 86 1017.2
20260506042058 57 293 0.0 0.0 0.00 0.00 0.00 85 1017.1
20260506041558 57 293 0.0 0.0 0.00 0.00 0.00 85 1017.1
20260506041057 58 293 0.0 0.0 0.00 0.00 0.00 84 1017.1
20260506040558 58 293 0.0 0.0 0.00 0.00 0.00 83 1017.0
20260506040057 58 293 0.0 0.0 0.00 0.00 0.00 83 1017.0
20260506035558 58 293 0.0 1.0 0.00 0.00 0.00 82 1017.0
20260506035057 59 293 0.0 3.0 0.00 0.00 0.00 82 1016.9
20260506034600 59 293 1.0 3.0 0.00 0.00 0.00 81 1016.7
20260506034057 59 293 1.0 3.0 0.00 0.00 0.00 81 1016.7
20260506033556 59 293 2.0 5.0 0.00 0.00 0.00 80 1016.6
20260506033157 60 293 2.0 5.0 0.00 0.00 0.00 79 1016.6
20260506032556 60 292 2.0 5.0 0.00 0.00 0.00 79 1016.5
20260506032056 61 292 2.0 8.0 0.00 0.00 0.00 78 1016.4
20260506031558 61 293 4.0 8.0 0.00 0.00 0.00 77 1016.4
20260506031058 62 291 0.0 2.0 0.00 0.00 0.00 77 1016.4
20260506030555 62 291 0.0 2.0 0.00 0.00 0.00 76 1016.4
20260506030055 62 291 0.0 3.0 0.00 0.00 0.00 76 1016.3
20260506025555 62 291 0.0 2.0 0.00 0.00 0.00 76 1016.3
20260506025055 62 291 1.0 3.0 0.00 0.00 0.00 75 1016.3
20260506024555 62 291 1.0 3.0 0.00 0.00 0.00 75 1016.3
20260506024058 63 291 0.0 3.0 0.00 0.00 0.00 74 1016.3
20260506023555 63 291 0.0 4.0 0.00 0.00 0.00 73 1016.3
20260506022554 64 225 1.0 4.0 0.00 0.00 0.00 68 1016.1
20260506022054 65 298 1.0 3.0 0.00 0.00 0.00 68 1016.0
20260506021558 65 299 0.0 3.0 0.00 0.00 0.00 69 1016.1
20260506021056 65 315 1.0 3.0 0.00 0.00 0.00 69 1016.1
20260506020557 65 286 1.0 4.0 0.00 0.00 0.00 67 1016.1
20260506020054 65 285 1.0 4.0 0.00 0.00 0.00 67 1016.0
20260506015554 66 309 1.0 3.0 0.00 0.00 0.00 67 1016.0
20260506015057 67 317 0.0 2.0 0.00 0.00 0.00 66 1016.0
20260506014553 66 337 0.0 4.0 0.00 0.00 0.00 72 1016.1
20260506014054 64 265 0.0 4.0 0.00 0.00 0.00 72 1016.0
20260506013551 64 292 0.0 4.0 0.00 0.00 0.00 72 1016.0
20260506012554 63 102 0.0 1.0 0.00 0.00 0.00 71 1016.2
20260506012058 64 203 0.0 1.0 0.00 0.00 0.00 72 1016.1
20260506011554 64 207 0.0 3.0 0.00 0.00 0.00 72 1016.0
20260506011052 64 206 0.0 3.0 0.00 0.00 0.00 72 1016.1
20260506010554 64 211 0.0 2.0 0.00 0.00 0.00 71 1016.2
20260506010056 64 222 0.0 1.0 0.00 0.00 0.00 71 1016.2
20260506005552 63 186 0.0 4.0 0.00 0.00 0.00 73 1016.3
20260506005052 63 206 0.0 4.0 0.00 0.00 0.00 72 1016.2
20260506004551 63 186 0.0 3.0 0.00 0.00 0.00 71 1016.3
20260506004053 63 213 0.0 3.0 0.00 0.00 0.00 72 1016.3
20260506003554 63 163 1.0 3.0 0.00 0.00 0.00 72 1016.2
20260506003151 63 265 2.0 6.0 0.00 0.00 0.00 74 1016.3
20260506002551 63 268 2.0 4.0 0.00 0.00 0.00 74 1016.3
20260506002051 63 271 2.0 5.0 0.00 0.00 0.00 74 1016.3
20260506001604 64 296 2.0 6.0 0.00 0.00 0.00 71 1016.4
20260506001051 64 323 4.0 10.0 0.00 0.00 0.00 71 1016.4
20260506000551 65 297 4.0 10.0 0.00 0.00 0.00 71 1016.4
20260506000049 64 316 4.0 8.0 0.00 0.00 0.00 72 1016.4
20260505235549 64 288 1.0 4.0 0.00 0.00 0.00 73 1016.5
20260505235049 63 279 2.0 6.0 0.00 0.00 0.00 72 1016.5
20260505234607 64 270 1.0 6.0 0.00 0.00 0.00 70 1016.6
20260505234049 63 267 2.0 6.0 0.00 0.00 0.00 73 1016.5
20260505233550 63 265 1.0 6.0 0.00 0.00 0.00 72 1016.6
20260505233150 64 297 3.0 8.0 0.00 0.00 0.00 71 1016.6
20260505232548 64 297 4.0 8.0 0.00 0.00 0.00 72 1016.6
20260505232050 64 293 4.0 7.0 0.00 0.00 0.00 72 1016.6
20260505231547 63 252 1.0 7.0 0.00 0.00 0.00 76 1016.7
20260505231049 62 249 3.0 7.0 0.00 0.00 0.00 74 1016.7
20260505230545 63 292 3.0 5.0 0.00 0.00 0.00 74 1016.8
20260505230048 63 286 2.0 4.0 0.00 0.00 0.00 73 1016.7
20260505225544 61 283 2.0 7.0 0.00 0.00 0.00 74 1016.8
20260505225042 62 280 4.0 7.0 0.00 0.00 0.00 75 1017.0
20260505224541 60 251 0.0 4.0 0.00 0.00 0.00 76 1017.0
20260505224042 60 252 1.0 4.0 0.00 0.00 0.00 78 1017.1
20260505223542 60 249 0.0 3.0 0.00 0.00 0.00 77 1017.1
20260505222537 60 249 1.0 7.0 0.00 0.00 0.00 77 1017.2
20260505222037 60 329 1.0 6.0 0.00 0.00 0.00 77 1017.3
20260505221537 59 349 3.0 6.0 0.00 0.00 0.00 78 1017.2
20260505221035 59 278 1.0 4.0 0.00 0.00 0.00 79 1017.2
20260505220535 59 278 0.0 7.0 0.00 0.00 0.00 78 1017.3
20260505220035 59 238 2.0 7.0 0.00 0.00 0.00 78 1017.3
20260505215534 59 211 1.0 3.0 0.00 0.00 0.00 80 1017.4
20260505215033 59 209 2.0 4.0 0.00 0.00 0.00 79 1017.5
20260505214544 58 209 1.0 4.0 0.00 0.00 0.00 80 1017.5
20260505214035 59 210 0.0 4.0 0.00 0.00 0.00 80 1017.5
20260505213531 58 209 1.0 5.0 0.00 0.00 0.00 80 1017.5
20260505212530 58 204 3.0 6.0 0.00 0.00 0.00 81 1017.5
20260505212034 58 198 1.0 4.0 0.00 0.00 0.00 81 1017.6
20260505211540 58 198 1.0 3.0 0.00 0.00 0.00 80 1017.6
20260505211030 58 197 0.0 3.0 0.00 0.00 0.00 80 1017.5
20260505210532 58 197 0.0 4.0 0.00 0.00 0.00 80 1017.6
20260505210027 58 197 0.0 5.0 0.00 0.00 0.00 81 1017.6
20260505205528 57 196 2.0 5.0 0.00 0.00 0.00 82 1017.6
20260505205026 58 196 1.0 4.0 0.00 0.00 0.00 81 1017.6
20260505204526 58 196 1.0 6.0 0.00 0.00 0.00 81 1017.6
20260505204025 57 196 2.0 6.0 0.00 0.00 0.00 81 1017.7
20260505203524 58 193 1.0 5.0 0.00 0.00 0.00 83 1017.6